Weather Roundup
Issued by NWS

Home | Current Version | Previous Version | Text Only | Print | Product List | Glossary On
Versions: 1 2 3 4 5 6 7 8 9 10 11 12 13 14 15 16 17 18 19 20 21 22 23 24 25 26 27 28 29 30 31 32 33 34 35 36 37 38 39 40 41 42 43 44 45 46 47 48 49 50
323
NZUS93 KARX 180310
HRRWXR

CURRENT HOURLY OBSERVATIONS ACROSS
MUCH OF THE UPPER MISSISSIPPI VALLEY
NATIONAL WEATHER SERVICE LA CROSSE WI
900 PM CST TUE JAN 17 2017


...SOUTHEAST MINNESOTA...


CITY           SKY/WX    TMP DP  RH WIND       PRES   REMARKS
ROCHESTER      FOG       31  31 100 W10       30.01R VSB 3/4 WCI  22
ROCHESTER/MAYO CLOUDY    32  32 100 W9        30.01S WCI  25
WINONA         CLOUDY    34  32  93 W7        30.02R WCI  28
AUSTIN         FOG       30  28  93 SW7       30.02R VSB 1/4 WCI  23
ALBERT LEA     CLOUDY    30  30 100 CALM      30.01S
DODGE CENTER   FOG       30  30 100 CALM      30.00S VSB 1/4
PRESTON        FOG       31  31  96 W12       30.01S VSB 3/4 WCI  22
OWATONNA       CLOUDY    28  28 100 SW8       30.01F FOG     WCI  20
FARIBAULT      CLOUDY    28  28 100 S8        30.01S FOG     WCI  20
$$

...ELSEWHERE IN MINNESOTA...


CITY           SKY/WX    TMP DP  RH WIND       PRES   REMARKS
MINNEAPOLIS    CLOUDY    30  27  88 W12       30.00R WCI  20
INTNL FALLS    CLOUDY    27  18  69 S6        29.74F WCI  20
DULUTH         CLOUDY    27  19  72 W9        29.86S WCI  18
RED WING       CLOUDY    34  30  86 W6        30.01S WCI  29
REDWOOD FALLS  CLOUDY    20  17  88 S6        29.97F WCI  12
MANKATO        PTCLDY    29  28  96 S8        30.00F FOG     WCI  21
WORTHINGTON    CLOUDY    26  25  96 SW14      29.99R WCI  14
FAIRMONT       NOT AVBL
$$

...SOUTHWEST WISCONSIN...


CITY           SKY/WX    TMP DP  RH WIND       PRES   REMARKS
LA CROSSE      CLOUDY    35  32  88 NW5       30.00R FOG     WCI  31
PRAIRIE DU CHI CLOUDY    34  33  96 CALM      30.03R FOG
BOSCOBEL       CLOUDY    35  33  92 SW6       30.01R WCI  30
LONE ROCK      CLOUDY    34  32  92 W7        30.00R FOG     WCI  28
PLATTEVILLE    CLOUDY    33  33 100 W8        30.00S WCI  27
FORT MC COY    CLOUDY    33  33 100 W3        29.99R FOG
CAMP DOUGLAS   CLOUDY    34  34 100 W9        29.96R FOG     WCI  26
MAUSTON-NEW LI CLOUDY    35  34  99 W5        29.96R FOG     WCI  31
VIROQUA        CLOUDY    33  33 100 W5        29.97R VSB 1/4 WCI  28
WIS DELLS      FOG       33  33  99 W5        29.96R VSB 1   WCI  29
$$

...ELSEWHERE IN WISCONSIN...


CITY           SKY/WX    TMP DP  RH WIND       PRES   REMARKS
MILWAUKEE      CLOUDY    36  33  89 W8        29.95R WCI  30
MADISON        DRIZZLE   34  33  96 W3        29.97S FOG
GREEN BAY      FOG       35  35 100 CALM      29.93F VSB 1/2
EAU CLAIRE     FOG       30  30 100 W12       29.98R VSB 1/2 WCI  20
BLACK RVR FLS  CLOUDY    34  34 100 W6        29.98R FOG     WCI  29
MEDFORD        CLEAR     31  30  99 W5        29.92R FOG     WCI  26
WAUSAU         FOG       32  32 100 CALM      29.91R VSB 3/4
WIS RAPIDS     FOG       33  33 100 W5        29.95R VSB 1/4 WCI  29
MARSHFIELD     PTCLDY    32  31  96 W7        29.92S WCI  26
RICE LAKE      SNOW      29  28  96 SW5       29.97S VSB 1/4 WCI  24
$$

...NORTHEAST IOWA...


CITY           SKY/WX    TMP DP  RH WIND       PRES   REMARKS
WATERLOO       CLOUDY    33  32  96 W7        30.06R FOG     WCI  27
DUBUQUE        FOG       33  33 100 W12       30.01S VSB 1   WCI  24
DECORAH        CLOUDY    32  32 100 VRB6      30.01R FOG     WCI  26
MASON CITY     CLOUDY    30  30 100 W12       30.05R WCI  20
CHARLES CITY   FOG       32  32 100 W9        30.05R VSB 1/2 WCI  24
OELWEIN        FOG       32  32 100 W8        30.05R VSB 1/2 WCI  25
$$

...ELSEWHERE IN IOWA...


CITY           SKY/WX    TMP DP  RH WIND       PRES   REMARKS
DES MOINES     DRIZZLE   32  31  96 W9        30.10S FOG     WCI  24
IOWA CITY      CLOUDY    35  33  92 W8        30.09F FOG     WCI  29
FORT DODGE     CLOUDY    30  27  86 MISG      30.07S
MARSHALLTOWN   CLOUDY    32  32 100 W9        30.07R FOG     WCI  24
CEDAR RAPIDS   CLOUDY    32  32 100 NW9       30.06S FOG     WCI  24
$$

...NORTHERN ILLINOIS...


CITY           SKY/WX    TMP DP  RH WIND       PRES   REMARKS
CHICAGO-OHARE  DRIZZLE   35  34  96 W10       29.98R WCI  27
CHICAGO-MIDWAY CLOUDY    34  33  96 W8        29.99S FOG     WCI  27
MOLINE         CLOUDY    34  32  92 W12       30.06R FOG     WCI  25
ROCKFORD       CLOUDY    35  33  92 W10       30.02R FOG     WCI  27
PEORIA         CLOUDY    36  35  96 W7        30.09R WCI  30
$$

NOTE: "FAIR" INDICATES FEW OR NO CLOUDS BELOW 12,000 FEET WITH NO
SIGNIFICANT WEATHER AND/OR OBSTRUCTIONS TO VISIBILITY. WIND
SPEEDS ARE IN MILES-PER-HOUR.




USA.gov is the U.S. government's official web portal to all federal, state and local government web resources and services.